CW6421 Weather Reports


time (UTC)temp
C
wind
direction
speed
KPH
gust
KPH
rain 1hr
cm
rain 24hr
cm
rain mn
cm
humidity
%
barometer
mb
20260509160528 16 70 14.5 16.1 0.00 0.00 0.00 56 1020.1
20260509155528 16 72 12.9 16.1 0.00 0.00 0.00 56 1020.1
20260509154530 16 161 4.8 12.9 0.00 0.00 0.00 56 1020.1
20260509153526 16 177 6.4 11.3 0.00 0.00 0.00 56 1020.1
20260509152526 16 174 8.0 12.9 0.00 0.00 0.00 56 1020.1
20260509151530 16 123 4.8 12.9 0.00 0.00 0.00 56 1020.1
20260509150528 16 124 6.4 17.7 0.00 0.00 0.00 56 1020.4
20260509145528 16 136 6.4 17.7 0.00 0.03 0.00 56 1020.4
20260509143528 16 62 9.7 19.3 0.00 0.03 0.00 55 1020.4
20260509142527 16 69 8.0 16.1 0.00 0.03 0.00 55 1020.4
20260509141530 16 64 8.0 17.7 0.00 0.03 0.00 55 1020.4
20260509135527 16 60 8.0 14.5 0.00 0.03 0.00 55 1020.8
20260509134529 16 241 6.4 12.9 0.00 0.03 0.00 55 1020.8
20260509133527 16 248 6.4 11.3 0.00 0.03 0.00 55 1020.8
20260509132527 17 255 6.4 12.9 0.00 0.03 0.00 54 1020.8
20260509131530 17 331 8.0 12.9 0.00 0.03 0.00 54 1020.8
20260509130527 17 79 8.0 19.3 0.00 0.03 0.00 54 1021.2
20260509125528 17 60 6.4 19.3 0.00 0.03 0.00 55 1021.2
20260509124531 17 69 4.8 19.3 0.00 0.03 0.00 55 1021.2
20260509123527 17 64 3.2 20.9 0.00 0.03 0.00 54 1021.2
20260509122527 17 68 8.0 19.3 0.00 0.03 0.00 54 1021.2
20260509121530 17 69 6.4 17.7 0.00 0.03 0.00 53 1021.2
20260509120529 18 37 4.8 19.3 0.00 0.03 0.00 53 1021.5
20260509114637 16 26 1.6 19.3 0.00 0.03 0.00 55 1021.5
20260509113528 16 30 4.8 22.5 0.00 0.03 0.00 55 1021.5
20260509112526 16 23 1.6 22.5 0.00 0.03 0.00 55 1021.5
20260509111530 17 31 6.4 19.3 0.00 0.03 0.00 54 1021.5
20260509110527 17 259 8.0 19.3 0.00 0.00 0.00 55 1021.9
20260509105528 17 241 9.7 17.7 0.00 0.00 0.00 56 1021.9
20260509104530 16 169 4.8 19.3 0.00 0.00 0.00 55 1021.9
20260509103528 17 157 6.4 19.3 0.00 0.00 0.00 56 1021.9
20260509102528 17 152 4.8 12.9 0.00 0.00 0.00 58 1022.0
20260509101529 16 11 4.8 12.9 0.00 0.00 0.00 59 1022.0
20260509100528 16 21 4.8 12.9 0.00 0.00 0.00 59 1022.0
20260509094529 15 354 8.0 14.5 0.00 0.00 0.00 62 1022.0
20260509093527 15 357 9.7 16.1 0.00 0.00 0.00 63 1022.0
20260509092527 15 347 8.0 16.1 0.00 0.00 0.00 64 1022.0
20260509091529 15 27 6.4 12.9 0.00 0.00 0.00 66 1022.0
20260509090528 14 59 9.7 14.5 0.00 0.00 0.00 68 1022.0
20260509085527 14 54 9.7 12.9 0.00 0.00 0.00 69 1022.0
20260509084530 13 55 6.4 14.5 0.00 0.00 0.00 69 1022.0
20260509082528 13 64 8.0 14.5 0.00 0.00 0.00 71 1022.0
20260509080527 12 54 8.0 9.7 0.00 0.00 0.00 72 1021.9
20260509075527 12 70 9.7 11.3 0.00 0.00 0.00 74 1021.9
20260509074529 12 55 8.0 8.0 0.00 0.00 0.00 74 1021.9
20260509073528 12 55 8.0 9.7 0.00 0.00 0.00 74 1021.9
20260509070526 11 30 4.8 8.0 0.00 0.00 0.00 75 1021.8
20260509065528 11 31 4.8 8.0 0.00 0.00 0.00 76 1021.8
20260509064529 10 27 4.8 8.0 0.00 0.00 0.00 76 1021.8
20260509063527 10 20 4.8 8.0 0.00 0.00 0.00 77 1021.8
20260509062527 10 32 4.8 8.0 0.00 0.00 0.00 77 1021.8
20260509061530 10 40 3.2 8.0 0.00 0.00 0.00 77 1021.8
20260509060528 10 71 3.2 9.7 0.00 0.00 0.00 77 1021.5
20260509055526 10 82 4.8 8.0 0.00 0.00 0.00 77 1021.5
20260509054529 10 74 3.2 8.0 0.00 0.00 0.00 77 1021.5
20260509053527 10 74 3.2 8.0 0.00 0.00 0.00 77 1021.5
20260509052526 10 74 4.8 8.0 0.00 0.00 0.00 77 1021.5
20260509051530 9 83 6.4 8.0 0.00 0.00 0.00 77 1021.5
20260509050528 9 75 3.2 8.0 0.00 0.00 0.00 77 1021.4
20260509045526 9 70 6.4 8.0 0.00 0.00 0.00 76 1021.4
20260509044529 9 56 8.0 9.7 0.00 0.00 0.00 76 1021.4
20260509043527 9 61 6.4 8.0 0.00 0.00 0.00 76 1021.4
20260509042527 9 50 4.8 8.0 0.00 0.00 0.00 76 1021.4
20260509041529 9 59 4.8 8.0 0.00 0.00 0.00 76 1021.4
20260509040526 9 61 4.8 8.0 0.00 0.00 0.00 76 1021.5
20260509035527 9 54 6.4 8.0 0.00 0.00 0.00 76 1021.5
20260509034530 9 53 4.8 8.0 0.00 0.00 0.00 75 1021.5
20260509031530 9 55 4.8 8.0 0.00 0.00 0.00 75 1021.5
20260509030526 10 45 4.8 12.9 0.00 0.00 0.00 75 1021.5
20260509025525 10 40 6.4 12.9 0.00 0.00 0.00 75 1021.5
20260509024529 10 21 3.2 12.9 0.00 0.00 0.00 75 1021.5
20260509023526 10 28 3.2 12.9 0.00 0.00 0.00 75 1021.5
20260509021528 10 44 6.4 12.9 0.00 0.00 0.00 74 1021.5
20260509020527 10 32 8.0 11.3 0.00 0.00 0.00 74 1021.3
20260509015527 10 47 6.4 11.3 0.00 0.00 0.00 74 1021.3
20260509014528 10 27 9.7 9.7 0.00 0.00 0.00 73 1021.3
20260509013527 10 26 8.0 9.7 0.00 0.00 0.00 73 1021.3
20260509012525 10 35 9.7 12.9 0.00 0.00 0.00 73 1021.3
20260509011529 10 43 9.7 11.3 0.00 0.00 0.00 73 1021.3
20260509005526 10 48 8.0 14.5 0.00 0.00 0.00 73 1021.6
20260509004529 10 45 8.0 12.9 0.00 0.00 0.00 73 1021.6
20260509002526 10 43 6.4 12.9 0.00 0.00 0.00 73 1021.6
20260508235526 11 59 8.0 11.3 0.00 0.00 0.00 73 1021.6
20260508234530 11 32 8.0 12.9 0.00 0.00 0.00 73 1021.6
20260508233527 11 38 6.4 12.9 0.00 0.00 0.00 73 1021.6
20260508231527 11 28 4.8 12.9 0.00 0.00 0.00 73 1021.6
20260508230527 11 22 6.4 8.0 0.00 0.00 0.00 73 1021.6
20260508225529 11 20 8.0 9.7 0.00 0.00 0.00 73 1021.6
20260508223532 11 12 3.2 4.8 0.00 0.00 0.00 73 1021.6
20260508222527 11 21 6.4 8.0 0.00 0.00 0.00 73 1021.6
20260508221529 11 11 3.2 4.8 0.00 0.00 0.00 73 1021.6
20260508220528 11 345 4.8 9.7 0.00 0.00 0.00 72 1021.5
20260508214529 11 359 1.6 9.7 0.00 0.00 0.00 72 1021.5
20260508213530 11 354 1.6 9.7 0.00 0.00 0.00 71 1021.5
20260508212526 11 346 1.6 8.0 0.00 0.00 0.00 71 1021.5
20260508211528 11 343 1.6 9.7 0.00 0.00 0.00 71 1021.5
20260508210528 12 88 3.2 9.7 0.00 0.00 0.00 70 1021.3
20260508204529 12 75 3.2 9.7 0.00 0.00 0.00 69 1021.3
20260508203526 12 77 3.2 8.0 0.00 0.00 0.00 70 1021.3
20260508202528 12 76 4.8 9.7 0.00 0.00 0.00 69 1021.3
20260508200528 12 89 6.4 11.3 0.00 0.00 0.00 69 1021.0
20260508194530 12 86 6.4 12.9 0.00 0.03 0.00 69 1021.0
20260508193528 12 72 3.2 12.9 0.00 0.03 0.00 69 1021.0
20260508190528 12 61 6.4 16.1 0.00 0.03 0.00 67 1020.5
20260508185527 12 74 4.8 17.7 0.00 0.03 0.00 67 1020.5
20260508184530 12 65 6.4 17.7 0.00 0.03 0.00 67 1020.5
20260508183527 12 60 11.3 16.1 0.00 0.03 0.00 66 1020.5
20260508182526 13 50 9.7 17.7 0.00 0.03 0.00 65 1020.5
20260508181528 13 64 9.7 16.1 0.00 0.03 0.00 65 1020.5
20260508180528 13 67 11.3 16.1 0.00 0.03 0.00 65 1020.2
20260508175528 13 72 8.0 16.1 0.00 0.03 0.00 65 1020.2
20260508173527 13 65 11.3 14.5 0.00 0.03 0.00 64 1020.2
20260508172527 13 77 12.9 14.5 0.00 0.03 0.00 64 1020.2
20260508171529 13 89 8.0 16.1 0.00 0.05 0.00 64 1020.2
20260508170526 13 76 9.7 19.3 0.00 0.05 0.00 64 1020.2
20260508165527 14 79 6.4 17.7 0.00 0.05 0.00 63 1020.2
20260508162528 14 68 9.7 19.3 0.00 0.05 0.00 63 1020.2
20260508161530 14 80 9.7 16.1 0.00 0.05 0.00 62 1020.2